SCP
0 0 0 0 0 0 -0 -0 0 0 0 0 0 0 0 0 0 0 0 -0 -0 -0 -0 -0 -0 -0 -1 -1 -1 -1 -1 -0 -0 -0 -0 -0 -0 -0 -0 -0 0 0 0 0 -0 0 0 0 0
0 0 0 0 0 0 -0 0 0 0 0 0 0 0 0 0 0 0 0 0 0 -0 -0 -0 -0 -0 -1 -1 -1 -0 -0 -0 -0 -0 -0 -0 -0 -0 -0 -0 0 0 0 -0 0 0 0 0 0
0 0 0 0 0 0 -0 0 0 0 0 0 0 0 0 0 0 0 0 0 0 0 0 0 -0 -0 -0 -1 -1 -0 -0 -0 -0 -0 -0 -0 -0 -0 -0 -0 -0 -0 -0 0 0 0 0 -0 -0
0 0 0 0 0 0 0 0 0 0 0 0 0 0 0 0 0 0 0 0 1 0 0 0 -0 -0 -0 -0 -0 -0 -0 -0 -0 -0 -0 -0 -0 0 0 -0 -0 -0 -0 0 0 -0 -0 -0 -0
0 0 0 0 0 0 0 0 0 0 0 0 0 0 0 1 0 0 0 0 1 1 0 0 0 0 0 0 -0 -0 -0 -0 -0 -0 -0 0 0 0 0 0 -0 -0 0 0 0 0 -0 -0 -0
0 0 0 0 0 0 0 0 0 0 0 0 0 0 0 0 0 -0 0 0 0 0 1 1 0 0 0 0 0 0 0 0 0 0 0 0 0 0 0 0 0 0 0 0 0 -0 -0 -0 -0
0 0 0 0 0 0 0 0 0 0 0 0 0 0 0 -0 -0 -0 -0 -0 0 0 1 1 1 1 0 0 0 0 0 0 0 0 0 0 0 0 0 0 0 0 0 0 0 0 -0 -0 -0
0 0 0 0 0 0 0 0 0 0 0 0 0 0 0 -1 0 0 -0 -0 0 0 0 1 1 1 1 1 0 0 0 0 0 0 0 0 0 0 0 0 0 0 0 0 0 0 0 -0 -0
0 0 0 0 0 0 0 0 0 0 0 0 0 0 -0 0 0 0 0 0 0 0 -0 0 0 1 1 1 1 1 1 1 0 0 0 0 0 0 0 0 0 0 0 0 0 0 0 0 -0
0 0 0 0 0 0 0 -0 0 0 0 0 0 0 0 0 0 0 0 0 0 0 0 -0 0 1 1 1 1 1 1 1 1 1 1 1 0 0 0 0 0 0 0 0 0 0 0 0 0
0 0 0 0 0 0 0 0 -0 0 0 0 0 0 0 0 0 1 0 0 0 0 0 0 0 1 1 1 1 1 1 1 1 1 1 1 1 0 1 0 0 0 0 0 0 0 0 0 0
0 0 0 0 0 0 0 -0 -0 -0 0 -0 -0 0 0 0 0 0 1 1 1 1 1 0 1 1 1 1 2 1 1 1 1 1 1 1 1 0 0 0 0 0 0 0 0 0 0 0 0
0 0 0 0 0 0 0 -0 -0 -0 -0 0 0 0 0 0 0 0 0 0 0 1 1 1 1 1 1 1 1 1 1 1 1 1 1 1 1 1 1 1 0 0 0 0 0 0 0 0 0
0 0 0 0 0 0 0 0 -0 -0 0 0 0 0 0 0 0 0 0 0 0 0 0 1 1 1 1 1 1 1 1 1 1 1 1 1 1 1 1 1 1 0 0 0 0 0 0 0 0
0 0 0 -0 0 0 0 0 0 0 0 0 0 -0 0 0 0 0 0 -0 -0 -0 0 0 1 0 0 0 1 1 1 1 1 1 1 1 1 1 1 1 1 1 1 0 0 0 0 0 0
0 0 0 0 0 0 0 -0 0 -0 0 0 0 0 0 0 0 0 0 0 0 0 0 0 1 0 0 0 1 1 0 0 1 1 1 1 1 1 1 1 1 1 1 1 0 0 0 0 0
0 0 0 0 0 0 0 0 0 0 0 0 0 0 0 0 0 0 0 0 0 0 0 0 0 0 0 1 1 2 1 0 0 1 0 1 1 2 2 2 1 1 1 1 1 1 0 0 0
0 0 0 0 0 0 0 0 0 0 0 0 0 0 0 0 0 0 0 0 0 0 0 0 0 0 0 0 0 0 2 2 1 1 1 0 0 1 1 2 1 1 1 1 1 1 0 0 0
0 0 0 0 0 0 0 0 0 0 0 0 0 0 0 0 0 0 0 0 0 0 0 0 0 0 0 0 0 0 0 0 1 1 1 1 1 1 1 1 1 1 1 1 1 1 0 0 0
0 0 0 0 0 0 0 0 0 -0 0 0 0 0 0 0 0 0 0 0 0 0 0 0 0 0 0 0 0 0 0 0 0 0 0 0 1 1 1 1 1 1 1 1 1 1 1 1 0
0 0 0 0 0 0 0 0 0 0 0 0 0 0 0 0 0 0 0 0 0 0 0 0 0 0 0 0 0 0 0 0 0 0 0 0 0 0 1 1 1 1 1 1 1 1 1 1 1
0 0 0 0 0 0 0 0 0 0 0 0 0 0 0 0 0 0 0 0 0 0 0 0 0 0 0 0 0 0 0 0 0 0 0 0 0 0 0 0 0 1 1 1 2 2 1 1 1
0 0 0 0 0 0 0 0 0 0 0 0 0 0 0 0 0 0 0 0 0 0 0 0 0 0 0 0 0 0 0 0 0 0 0 0 0 0 0 0 0 0 0 1 1 1 1 1 1
0 0 0 0 0 0 0 0 0 0 0 0 0 0 0 0 0 0 0 0 0 0 0 0 0 0 0 0 0 0 0 0 0 0 0 0 0 0 0 0 0 0 0 0 0 1 1 1 1
0 0 0 0 0 0 0 0 0 0 0 0 0 0 0 0 0 0 0 0 0 0 0 0 0 0 0 0 0 0 0 0 0 0 0 0 0 0 0 0 0 0 0 0 0 0 1 1 1
0 0 0 0 0 0 0 0 0 0 0 0 0 0 0 0 -0 0 0 0 0 0 0 0 0 0 0 0 0 0 0 0 0 0 0 0 0 0 0 0 -0 -0 -0 0 0 0 0 1 0
0 0 0 0 0 0 0 0 0 0 0 0 0 0 0 0 0 0 0 0 0 0 0 0 0 0 0 0 0 0 0 0 0 0 0 0 0 0 0 0 0 -0 0 0 0 0 0 0 0
0 0 0 0 0 0 0 0 0 0 0 0 0 0 0 0 0 0 0 0 0 0 0 0 0 0 0 0 0 0 0 0 0 0 0 0 0 0 0 0 0 0 0 0 0 0 0 0 0
0 0 0 0 0 0 0 0 0 0 0 0 0 0 0 0 0 0 0 0 0 0 0 0 0 0 0 0 0 0 0 0 0 0 0 0 0 0 0 0 0 0 0 0 0 0 0 0 0
0 0 0 0 0 0 0 0 0 0 0 0 0 0 0 0 0 0 0 0 0 0 0 0 0 0 0 0 0 0 0 0 0 0 0 0 0 0 0 0 0 0 0 0 0 0 0 0 0
Wind_Speed_500mb
18 15 19 10 5 8 8 11 6 11 19 13 5 10 9 9 4 7 37 52 42 60 62 58 53 47 47 47 45 44 41 38 35 33 31 32 35 37 38 37 34 31 27 24 22 22 22 21 19
15 15 8 3 7 1 10 9 12 12 13 17 16 10 9 6 4 21 48 51 50 58 60 57 53 49 47 46 44 42 39 37 36 35 36 38 41 41 40 36 32 29 25 23 21 21 21 20 18
17 11 5 7 6 11 8 9 15 12 21 45 4 7 5 3 22 41 41 38 64 58 58 56 52 50 47 44 41 39 36 36 38 38 40 42 43 41 39 35 32 28 25 22 21 21 20 19 18
14 5 4 7 14 11 7 15 23 27 44 3 19 9 10 5 20 23 35 42 59 56 56 54 50 51 47 44 40 37 35 34 37 38 39 41 41 40 38 35 32 28 25 23 21 21 21 20 19
15 6 2 3 10 10 5 21 35 20 10 18 11 6 8 16 13 34 30 41 50 54 53 52 49 50 47 44 40 37 33 32 33 36 37 38 39 38 37 34 30 28 25 23 22 21 21 21 21
9 5 4 9 10 9 9 33 25 15 18 23 24 15 4 29 33 31 25 32 46 45 49 51 50 49 48 44 42 39 36 32 31 33 35 35 36 35 33 31 28 26 24 23 21 20 20 20 20
14 6 11 8 7 8 8 20 10 12 7 8 27 9 16 41 33 36 30 32 36 39 41 49 52 51 49 46 44 42 40 37 33 31 31 32 32 33 32 31 29 27 25 23 22 21 21 20 20
18 7 7 9 10 13 10 9 29 29 8 23 48 12 14 42 39 37 39 38 38 38 39 42 46 49 51 51 48 46 43 41 38 35 33 33 33 33 32 31 29 27 25 25 24 23 23 22 21
25 7 10 12 11 11 21 11 26 30 27 7 11 42 40 43 46 44 44 44 40 43 42 44 46 49 51 52 52 50 47 45 43 42 40 38 37 37 37 35 32 30 28 27 26 26 26 24 23
11 12 24 11 1 9 24 11 22 20 26 22 14 23 39 44 47 47 48 50 52 45 45 43 43 47 54 54 54 54 53 52 51 49 48 47 43 40 38 37 36 35 34 33 32 31 30 31 28
9 25 26 8 23 18 28 47 19 16 3 13 16 10 23 42 58 53 46 50 43 46 46 36 32 37 50 55 56 56 56 55 54 54 54 52 51 49 47 44 42 42 41 42 41 40 39 38 35
9 13 17 39 59 40 11 39 38 37 33 20 18 18 13 15 32 36 38 44 53 49 45 44 45 46 45 55 56 56 56 55 56 55 56 57 56 55 54 51 47 47 46 47 48 47 46 46 46
10 4 34 37 38 43 50 58 41 47 50 23 13 13 31 26 21 19 20 20 28 37 42 45 44 50 48 53 56 58 57 55 53 50 50 51 55 58 58 60 58 59 53 55 56 57 56 57 56
12 26 19 35 44 62 54 40 17 79 75 67 39 22 14 25 30 29 19 21 26 25 30 34 40 50 54 56 58 56 54 53 50 46 44 43 47 55 58 63 65 66 64 63 62 62 66 63 64
47 8 15 34 40 26 42 25 34 80 69 67 69 40 28 26 29 31 33 17 14 22 27 31 33 39 54 62 61 51 52 49 46 46 43 41 42 43 50 60 63 67 69 69 69 71 70 70 71
15 9 10 17 26 37 33 39 36 71 69 67 59 55 45 35 38 38 33 32 30 25 17 24 30 41 49 52 53 48 44 39 39 45 47 48 50 50 54 57 61 61 63 66 72 73 75 76 76
6 10 10 16 23 20 34 16 24 54 57 56 59 54 51 50 39 45 41 38 30 26 23 19 23 24 31 42 47 44 38 37 35 35 41 44 47 51 55 59 63 66 67 67 65 68 74 80 81
9 6 8 11 7 11 7 13 19 42 38 53 63 55 52 49 49 45 41 35 31 32 31 28 28 29 29 31 35 37 38 38 44 51 55 50 52 54 59 61 64 61 74 78 75 77 77 76 80
6 5 10 9 11 2 11 10 29 35 33 36 46 50 57 59 52 52 43 40 41 40 38 36 35 38 39 39 36 32 32 32 28 27 36 42 46 54 57 61 64 65 68 74 79 85 87 89 85
10 6 13 12 10 10 8 12 14 7 15 46 56 49 48 46 51 51 47 44 49 50 48 47 42 41 45 43 41 37 34 34 34 31 30 33 39 43 46 52 59 62 63 71 74 80 91 95 90
10 9 12 14 5 3 4 9 9 8 8 15 32 41 49 54 54 55 51 52 50 52 56 54 49 41 35 33 31 27 26 29 33 37 42 43 45 49 50 49 48 48 49 60 73 76 80 87 92
11 14 22 18 9 7 4 8 8 9 12 6 12 27 36 41 52 63 60 60 61 61 60 50 42 35 28 22 20 21 24 30 35 37 39 42 46 51 52 55 57 55 56 55 60 61 66 74 88
18 17 25 14 7 10 4 7 13 5 6 11 15 27 27 37 43 51 70 71 67 65 60 47 36 29 22 16 18 21 26 28 32 38 44 43 41 44 43 45 51 56 59 59 58 58 60 65 71
11 7 14 9 7 2 8 10 9 5 5 10 9 22 20 28 36 22 56 65 59 52 42 32 25 20 19 20 25 32 30 32 37 40 47 45 44 49 53 57 61 63 60 62 57 56 60 61 67
15 11 4 5 3 10 5 5 14 5 4 11 7 14 7 8 8 22 61 51 41 31 24 20 24 27 27 29 39 40 37 40 44 45 42 48 53 53 54 59 63 64 59 52 54 57 56 53 60
4 10 10 13 8 7 7 7 6 3 18 26 22 22 30 37 39 38 35 27 23 25 27 31 35 34 38 42 44 44 46 51 48 44 44 48 53 56 58 59 61 54 54 54 50 52 57 60 61
2 6 6 12 6 6 5 9 4 8 17 24 28 24 15 18 20 26 27 28 29 32 34 39 44 45 47 51 51 52 54 50 52 48 49 50 55 58 59 57 59 58 55 55 56 53 54 57 62
5 6 3 7 9 7 7 5 8 5 9 6 11 16 14 15 11 8 5 16 26 36 44 47 47 51 53 49 47 48 51 54 54 53 54 58 60 60 58 60 57 58 65 63 62 60 59 59 59
7 3 9 9 8 9 7 10 8 9 10 15 16 20 19 21 13 8 4 2 3 7 15 21 29 35 42 44 45 48 50 50 52 54 55 58 59 58 64 63 61 63 65 67 67 68 66 64 57
7 4 7 8 8 5 6 10 8 11 12 26 26 26 34 32 26 22 18 15 15 18 19 21 21 20 21 25 28 29 33 43 50 54 55 57 59 59 62 62 67 67 66 63 64 67 68 69 72
Wind_Direction_500mb
295 306 319 317 47 67 271 257 257 287 329 359 93 135 155 61 238 212 149 162 167 164 165 164 161 164 166 165 165 167 167 169 170 171 171 168 164 161 159 157 155 154 152 148 145 143 141 139 138
287 306 309 124 108 239 265 240 251 234 327 60 69 52 51 22 359 140 155 161 174 166 165 166 163 163 167 165 165 166 167 171 171 168 164 163 163 162 162 160 160 159 156 154 151 149 150 149 149
307 305 249 128 162 197 228 228 261 311 293 280 246 42 58 106 116 144 159 164 168 170 166 168 167 164 169 169 169 169 169 169 168 164 162 162 163 163 163 164 164 163 163 161 159 159 159 160 164
279 264 187 121 232 254 233 315 302 306 320 159 152 87 87 178 138 158 155 161 169 171 168 170 171 168 171 173 172 172 170 168 168 166 164 164 165 166 168 170 171 170 169 169 169 169 170 172 174
246 235 192 213 259 265 325 271 299 286 256 163 141 127 93 162 166 142 143 162 174 172 170 174 176 174 175 177 177 179 177 174 173 173 173 172 173 176 177 179 178 178 178 180 181 181 182 182 182
213 204 106 234 250 264 283 288 306 331 132 143 130 111 73 144 152 138 129 160 176 175 174 178 181 180 182 183 183 185 186 185 183 183 183 183 185 186 188 188 189 189 191 192 193 194 194 195 192
168 165 193 194 258 273 220 323 347 326 276 152 128 93 149 157 160 148 134 141 166 179 182 185 187 185 187 190 191 193 193 195 194 193 194 195 198 199 201 201 201 201 203 206 207 207 207 205 204
201 139 163 209 209 256 199 20 352 359 342 150 138 157 180 171 173 163 160 158 164 177 186 194 195 195 194 195 198 200 201 202 203 204 203 204 206 209 212 216 217 216 215 217 218 220 220 218 217
211 114 199 201 179 266 237 52 341 350 6 306 278 165 163 167 179 177 173 172 177 184 187 195 200 203 204 203 203 205 207 209 211 212 214 214 214 215 216 218 221 225 229 231 231 232 232 232 231
198 188 221 195 299 305 315 10 344 337 10 29 74 135 150 175 185 192 189 188 186 191 193 193 201 209 208 209 209 210 211 213 215 218 220 222 223 225 226 227 226 227 230 234 237 239 240 241 239
221 211 219 193 278 259 312 301 314 316 120 321 7 311 162 177 188 199 204 207 208 202 201 203 207 213 215 215 215 216 217 219 221 223 226 228 230 231 232 232 233 233 234 234 236 237 239 242 244
180 207 164 223 249 267 265 291 292 283 285 237 224 230 264 225 176 204 214 216 211 214 217 213 216 216 219 222 221 223 225 226 227 230 231 234 237 240 241 244 244 243 243 245 246 244 245 246 246
195 164 198 230 237 275 291 275 264 277 274 261 218 194 201 224 212 176 176 198 216 229 230 230 237 233 226 226 227 229 231 234 236 238 240 242 245 247 251 254 254 257 254 251 252 254 251 251 251
209 212 209 239 232 237 243 255 271 273 278 278 263 250 201 211 222 231 199 202 197 211 216 229 236 240 236 230 231 231 237 241 244 247 251 256 261 260 259 258 259 259 260 261 263 261 261 259 260
229 167 225 231 230 236 234 257 233 245 259 268 269 268 251 235 224 230 243 248 217 201 214 228 235 240 238 229 231 231 238 244 247 248 248 250 263 274 273 268 268 269 268 266 265 266 266 264 265
159 154 224 235 218 233 188 241 241 244 239 235 243 257 266 257 235 227 222 236 242 243 225 195 215 231 235 229 230 233 236 242 249 253 259 262 263 268 272 272 273 276 276 274 269 268 266 266 266
355 177 183 270 201 204 185 210 226 233 224 229 238 245 251 254 247 228 227 230 230 214 224 206 189 206 220 225 233 241 246 249 261 270 268 272 270 273 273 274 275 277 277 276 276 273 269 269 268
214 197 206 212 235 200 154 246 252 250 239 234 240 247 249 249 245 223 215 215 211 197 187 189 185 191 206 216 229 241 249 252 259 271 277 280 284 282 284 286 285 278 272 275 275 275 273 273 272
237 225 233 238 240 261 249 268 266 267 227 222 238 242 246 253 247 220 214 217 208 198 201 200 199 196 202 207 212 221 235 247 252 251 258 266 273 278 278 280 284 286 286 279 273 274 277 275 273
223 248 276 283 266 160 242 239 260 277 227 217 227 237 246 239 230 227 228 223 216 219 218 219 218 210 200 203 207 217 227 239 254 263 265 271 279 282 281 280 280 281 283 283 284 282 274 273 273
232 197 254 218 329 210 220 307 326 311 273 216 232 230 238 236 234 234 229 221 218 219 214 210 209 204 197 206 217 232 252 268 280 288 293 294 289 284 288 290 291 292 294 290 286 282 282 280 275
256 207 238 254 134 219 110 264 284 299 313 343 251 254 260 262 257 253 240 217 218 210 199 200 202 204 206 213 230 252 271 288 302 310 313 308 301 293 292 289 292 297 296 292 289 292 291 286 280
229 217 207 210 180 123 334 87 270 315 293 287 297 301 275 279 285 262 238 222 205 196 198 200 203 213 229 249 270 283 293 305 311 314 312 310 300 298 300 311 310 303 299 299 297 289 290 289 288
274 107 53 48 96 206 219 138 287 241 275 293 281 276 291 290 291 279 219 188 179 180 185 196 214 230 251 267 283 289 289 299 298 301 307 301 295 301 302 309 310 311 304 295 291 298 287 286 282
50 60 0 323 352 214 281 102 228 281 327 248 285 323 335 322 282 188 168 167 168 172 185 214 237 251 265 277 289 282 285 293 299 304 299 289 288 290 293 299 309 309 311 306 295 288 292 286 287
17 134 151 204 200 230 315 226 208 10 43 68 85 98 105 110 119 130 146 168 199 224 235 242 251 258 266 280 283 277 275 284 288 292 287 281 281 286 294 302 308 312 310 311 304 294 290 292 282
217 58 175 105 14 71 258 292 3 36 39 45 58 65 72 113 145 166 187 208 220 225 236 244 257 273 278 280 270 264 270 272 285 284 272 271 278 285 292 298 306 311 314 312 305 308 301 291 287
124 150 71 16 144 202 286 265 216 69 63 43 22 14 34 43 37 13 292 258 256 256 257 262 269 260 260 256 257 258 263 276 278 274 272 278 282 286 289 293 298 303 307 318 315 306 304 308 293
21 46 71 109 133 164 169 255 215 137 20 355 22 37 62 75 66 56 67 49 292 278 278 277 272 267 263 262 262 261 258 257 254 254 264 277 283 283 286 287 292 296 300 305 312 313 306 306 304
90 120 119 138 202 163 160 261 69 48 34 84 54 76 75 76 68 63 55 37 18 5 355 345 335 322 308 294 289 289 281 272 268 265 262 259 263 272 278 281 288 290 293 299 302 307 304 303 295
Wind_Speed_850mb
18 15 19 10 5 8 8 11 6 11 19 13 5 10 9 9 4 7 37 52 42 60 62 58 53 47 47 47 45 44 41 38 35 33 31 32 35 37 38 37 34 31 27 24 22 22 22 21 19
15 15 8 3 7 1 10 9 12 12 13 17 16 10 9 6 4 21 48 51 50 58 60 57 53 49 47 46 44 42 39 37 36 35 36 38 41 41 40 36 32 29 25 23 21 21 21 20 18
17 11 5 7 6 11 8 9 15 12 21 45 4 7 5 3 22 41 41 38 64 58 58 56 52 50 47 44 41 39 36 36 38 38 40 42 43 41 39 35 32 28 25 22 21 21 20 19 18
14 5 4 7 14 11 7 15 23 27 44 3 19 9 10 5 20 23 35 42 59 56 56 54 50 51 47 44 40 37 35 34 37 38 39 41 41 40 38 35 32 28 25 23 21 21 21 20 19
15 6 2 3 10 10 5 21 35 20 10 18 11 6 8 16 13 34 30 41 50 54 53 52 49 50 47 44 40 37 33 32 33 36 37 38 39 38 37 34 30 28 25 23 22 21 21 21 21
9 5 4 9 10 9 9 33 25 15 18 23 24 15 4 29 33 31 25 32 46 45 49 51 50 49 48 44 42 39 36 32 31 33 35 35 36 35 33 31 28 26 24 23 21 20 20 20 20
14 6 11 8 7 8 8 20 10 12 7 8 27 9 16 41 33 36 30 32 36 39 41 49 52 51 49 46 44 42 40 37 33 31 31 32 32 33 32 31 29 27 25 23 22 21 21 20 20
18 7 7 9 10 13 10 9 29 29 8 23 48 12 14 42 39 37 39 38 38 38 39 42 46 49 51 51 48 46 43 41 38 35 33 33 33 33 32 31 29 27 25 25 24 23 23 22 21
25 7 10 12 11 11 21 11 26 30 27 7 11 42 40 43 46 44 44 44 40 43 42 44 46 49 51 52 52 50 47 45 43 42 40 38 37 37 37 35 32 30 28 27 26 26 26 24 23
11 12 24 11 1 9 24 11 22 20 26 22 14 23 39 44 47 47 48 50 52 45 45 43 43 47 54 54 54 54 53 52 51 49 48 47 43 40 38 37 36 35 34 33 32 31 30 31 28
9 25 26 8 23 18 28 47 19 16 3 13 16 10 23 42 58 53 46 50 43 46 46 36 32 37 50 55 56 56 56 55 54 54 54 52 51 49 47 44 42 42 41 42 41 40 39 38 35
9 13 17 39 59 40 11 39 38 37 33 20 18 18 13 15 32 36 38 44 53 49 45 44 45 46 45 55 56 56 56 55 56 55 56 57 56 55 54 51 47 47 46 47 48 47 46 46 46
10 4 34 37 38 43 50 58 41 47 50 23 13 13 31 26 21 19 20 20 28 37 42 45 44 50 48 53 56 58 57 55 53 50 50 51 55 58 58 60 58 59 53 55 56 57 56 57 56
12 26 19 35 44 62 54 40 17 79 75 67 39 22 14 25 30 29 19 21 26 25 30 34 40 50 54 56 58 56 54 53 50 46 44 43 47 55 58 63 65 66 64 63 62 62 66 63 64
47 8 15 34 40 26 42 25 34 80 69 67 69 40 28 26 29 31 33 17 14 22 27 31 33 39 54 62 61 51 52 49 46 46 43 41 42 43 50 60 63 67 69 69 69 71 70 70 71
15 9 10 17 26 37 33 39 36 71 69 67 59 55 45 35 38 38 33 32 30 25 17 24 30 41 49 52 53 48 44 39 39 45 47 48 50 50 54 57 61 61 63 66 72 73 75 76 76
6 10 10 16 23 20 34 16 24 54 57 56 59 54 51 50 39 45 41 38 30 26 23 19 23 24 31 42 47 44 38 37 35 35 41 44 47 51 55 59 63 66 67 67 65 68 74 80 81
9 6 8 11 7 11 7 13 19 42 38 53 63 55 52 49 49 45 41 35 31 32 31 28 28 29 29 31 35 37 38 38 44 51 55 50 52 54 59 61 64 61 74 78 75 77 77 76 80
6 5 10 9 11 2 11 10 29 35 33 36 46 50 57 59 52 52 43 40 41 40 38 36 35 38 39 39 36 32 32 32 28 27 36 42 46 54 57 61 64 65 68 74 79 85 87 89 85
10 6 13 12 10 10 8 12 14 7 15 46 56 49 48 46 51 51 47 44 49 50 48 47 42 41 45 43 41 37 34 34 34 31 30 33 39 43 46 52 59 62 63 71 74 80 91 95 90
10 9 12 14 5 3 4 9 9 8 8 15 32 41 49 54 54 55 51 52 50 52 56 54 49 41 35 33 31 27 26 29 33 37 42 43 45 49 50 49 48 48 49 60 73 76 80 87 92
11 14 22 18 9 7 4 8 8 9 12 6 12 27 36 41 52 63 60 60 61 61 60 50 42 35 28 22 20 21 24 30 35 37 39 42 46 51 52 55 57 55 56 55 60 61 66 74 88
18 17 25 14 7 10 4 7 13 5 6 11 15 27 27 37 43 51 70 71 67 65 60 47 36 29 22 16 18 21 26 28 32 38 44 43 41 44 43 45 51 56 59 59 58 58 60 65 71
11 7 14 9 7 2 8 10 9 5 5 10 9 22 20 28 36 22 56 65 59 52 42 32 25 20 19 20 25 32 30 32 37 40 47 45 44 49 53 57 61 63 60 62 57 56 60 61 67
15 11 4 5 3 10 5 5 14 5 4 11 7 14 7 8 8 22 61 51 41 31 24 20 24 27 27 29 39 40 37 40 44 45 42 48 53 53 54 59 63 64 59 52 54 57 56 53 60
4 10 10 13 8 7 7 7 6 3 18 26 22 22 30 37 39 38 35 27 23 25 27 31 35 34 38 42 44 44 46 51 48 44 44 48 53 56 58 59 61 54 54 54 50 52 57 60 61
2 6 6 12 6 6 5 9 4 8 17 24 28 24 15 18 20 26 27 28 29 32 34 39 44 45 47 51 51 52 54 50 52 48 49 50 55 58 59 57 59 58 55 55 56 53 54 57 62
5 6 3 7 9 7 7 5 8 5 9 6 11 16 14 15 11 8 5 16 26 36 44 47 47 51 53 49 47 48 51 54 54 53 54 58 60 60 58 60 57 58 65 63 62 60 59 59 59
7 3 9 9 8 9 7 10 8 9 10 15 16 20 19 21 13 8 4 2 3 7 15 21 29 35 42 44 45 48 50 50 52 54 55 58 59 58 64 63 61 63 65 67 67 68 66 64 57
7 4 7 8 8 5 6 10 8 11 12 26 26 26 34 32 26 22 18 15 15 18 19 21 21 20 21 25 28 29 33 43 50 54 55 57 59 59 62 62 67 67 66 63 64 67 68 69 72
Wind_Direction_850mb
295 306 319 317 47 67 271 257 257 287 329 359 93 135 155 61 238 212 149 162 167 164 165 164 161 164 166 165 165 167 167 169 170 171 171 168 164 161 159 157 155 154 152 148 145 143 141 139 138
287 306 309 124 108 239 265 240 251 234 327 60 69 52 51 22 359 140 155 161 174 166 165 166 163 163 167 165 165 166 167 171 171 168 164 163 163 162 162 160 160 159 156 154 151 149 150 149 149
307 305 249 128 162 197 228 228 261 311 293 280 246 42 58 106 116 144 159 164 168 170 166 168 167 164 169 169 169 169 169 169 168 164 162 162 163 163 163 164 164 163 163 161 159 159 159 160 164
279 264 187 121 232 254 233 315 302 306 320 159 152 87 87 178 138 158 155 161 169 171 168 170 171 168 171 173 172 172 170 168 168 166 164 164 165 166 168 170 171 170 169 169 169 169 170 172 174
246 235 192 213 259 265 325 271 299 286 256 163 141 127 93 162 166 142 143 162 174 172 170 174 176 174 175 177 177 179 177 174 173 173 173 172 173 176 177 179 178 178 178 180 181 181 182 182 182
213 204 106 234 250 264 283 288 306 331 132 143 130 111 73 144 152 138 129 160 176 175 174 178 181 180 182 183 183 185 186 185 183 183 183 183 185 186 188 188 189 189 191 192 193 194 194 195 192
168 165 193 194 258 273 220 323 347 326 276 152 128 93 149 157 160 148 134 141 166 179 182 185 187 185 187 190 191 193 193 195 194 193 194 195 198 199 201 201 201 201 203 206 207 207 207 205 204
201 139 163 209 209 256 199 20 352 359 342 150 138 157 180 171 173 163 160 158 164 177 186 194 195 195 194 195 198 200 201 202 203 204 203 204 206 209 212 216 217 216 215 217 218 220 220 218 217
211 114 199 201 179 266 237 52 341 350 6 306 278 165 163 167 179 177 173 172 177 184 187 195 200 203 204 203 203 205 207 209 211 212 214 214 214 215 216 218 221 225 229 231 231 232 232 232 231
198 188 221 195 299 305 315 10 344 337 10 29 74 135 150 175 185 192 189 188 186 191 193 193 201 209 208 209 209 210 211 213 215 218 220 222 223 225 226 227 226 227 230 234 237 239 240 241 239
221 211 219 193 278 259 312 301 314 316 120 321 7 311 162 177 188 199 204 207 208 202 201 203 207 213 215 215 215 216 217 219 221 223 226 228 230 231 232 232 233 233 234 234 236 237 239 242 244
180 207 164 223 249 267 265 291 292 283 285 237 224 230 264 225 176 204 214 216 211 214 217 213 216 216 219 222 221 223 225 226 227 230 231 234 237 240 241 244 244 243 243 245 246 244 245 246 246
195 164 198 230 237 275 291 275 264 277 274 261 218 194 201 224 212 176 176 198 216 229 230 230 237 233 226 226 227 229 231 234 236 238 240 242 245 247 251 254 254 257 254 251 252 254 251 251 251
209 212 209 239 232 237 243 255 271 273 278 278 263 250 201 211 222 231 199 202 197 211 216 229 236 240 236 230 231 231 237 241 244 247 251 256 261 260 259 258 259 259 260 261 263 261 261 259 260
229 167 225 231 230 236 234 257 233 245 259 268 269 268 251 235 224 230 243 248 217 201 214 228 235 240 238 229 231 231 238 244 247 248 248 250 263 274 273 268 268 269 268 266 265 266 266 264 265
159 154 224 235 218 233 188 241 241 244 239 235 243 257 266 257 235 227 222 236 242 243 225 195 215 231 235 229 230 233 236 242 249 253 259 262 263 268 272 272 273 276 276 274 269 268 266 266 266
355 177 183 270 201 204 185 210 226 233 224 229 238 245 251 254 247 228 227 230 230 214 224 206 189 206 220 225 233 241 246 249 261 270 268 272 270 273 273 274 275 277 277 276 276 273 269 269 268
214 197 206 212 235 200 154 246 252 250 239 234 240 247 249 249 245 223 215 215 211 197 187 189 185 191 206 216 229 241 249 252 259 271 277 280 284 282 284 286 285 278 272 275 275 275 273 273 272
237 225 233 238 240 261 249 268 266 267 227 222 238 242 246 253 247 220 214 217 208 198 201 200 199 196 202 207 212 221 235 247 252 251 258 266 273 278 278 280 284 286 286 279 273 274 277 275 273
223 248 276 283 266 160 242 239 260 277 227 217 227 237 246 239 230 227 228 223 216 219 218 219 218 210 200 203 207 217 227 239 254 263 265 271 279 282 281 280 280 281 283 283 284 282 274 273 273
232 197 254 218 329 210 220 307 326 311 273 216 232 230 238 236 234 234 229 221 218 219 214 210 209 204 197 206 217 232 252 268 280 288 293 294 289 284 288 290 291 292 294 290 286 282 282 280 275
256 207 238 254 134 219 110 264 284 299 313 343 251 254 260 262 257 253 240 217 218 210 199 200 202 204 206 213 230 252 271 288 302 310 313 308 301 293 292 289 292 297 296 292 289 292 291 286 280
229 217 207 210 180 123 334 87 270 315 293 287 297 301 275 279 285 262 238 222 205 196 198 200 203 213 229 249 270 283 293 305 311 314 312 310 300 298 300 311 310 303 299 299 297 289 290 289 288
274 107 53 48 96 206 219 138 287 241 275 293 281 276 291 290 291 279 219 188 179 180 185 196 214 230 251 267 283 289 289 299 298 301 307 301 295 301 302 309 310 311 304 295 291 298 287 286 282
50 60 0 323 352 214 281 102 228 281 327 248 285 323 335 322 282 188 168 167 168 172 185 214 237 251 265 277 289 282 285 293 299 304 299 289 288 290 293 299 309 309 311 306 295 288 292 286 287
17 134 151 204 200 230 315 226 208 10 43 68 85 98 105 110 119 130 146 168 199 224 235 242 251 258 266 280 283 277 275 284 288 292 287 281 281 286 294 302 308 312 310 311 304 294 290 292 282
217 58 175 105 14 71 258 292 3 36 39 45 58 65 72 113 145 166 187 208 220 225 236 244 257 273 278 280 270 264 270 272 285 284 272 271 278 285 292 298 306 311 314 312 305 308 301 291 287
124 150 71 16 144 202 286 265 216 69 63 43 22 14 34 43 37 13 292 258 256 256 257 262 269 260 260 256 257 258 263 276 278 274 272 278 282 286 289 293 298 303 307 318 315 306 304 308 293
21 46 71 109 133 164 169 255 215 137 20 355 22 37 62 75 66 56 67 49 292 278 278 277 272 267 263 262 262 261 258 257 254 254 264 277 283 283 286 287 292 296 300 305 312 313 306 306 304
90 120 119 138 202 163 160 261 69 48 34 84 54 76 75 76 68 63 55 37 18 5 355 345 335 322 308 294 289 289 281 272 268 265 262 259 263 272 278 281 288 290 293 299 302 307 304 303 295